Regional Weather Roundup
Issued by NWS

Home | Current Version | Previous Version | Text Only | Print | Product List | Glossary On
Versions: 1 2 3 4 5 6 7 8 9 10 11 12 13 14 15 16 17 18 19 20 21 22 23 24 25 26 27 28 29 30 31 32 33 34 35 36 37 38 39 40 41 42 43 44 45 46 47 48 49 50
000
ASUS43 KLSX 251707
RWRMO

WEATHER SUMMARY FOR MISSOURI
NATIONAL WEATHER SERVICE SPRINGFIELD MO
1200 PM CDT SUN OCT 25 2020

NOTE: "FAIR" INDICATES FEW OR NO CLOUDS BELOW 12,000 FEET WITH NO
       SIGNIFICANT WEATHER AND/OR OBSTRUCTIONS TO VISIBILITY.
       CURRENT SKY AND/OR WEATHER CONDITIONS ARE NOT AVAILABLE FOR
       CHILLICOTHE AND FARMINGTON.

MOZ001>031-035>038-043-044-053-054-251800-
...NORTHERN AND WESTERN MISSOURI...

CITY           SKY/WX    TMP DP  RH WIND       PRES   REMARKS
KANSAS CTY INT DRIZZLE   38  36  92 N9        30.18S FOG
KANSAS C DTWN  CLOUDY    39  34  82 N8        30.18F
LEE`S SUMMIT   CLOUDY    38  36  92 N8        30.17S FOG
ST JOSEPH      CLOUDY    38  34  85 N12       30.21F FOG
CHILLICOTHE      N/A     42  33  70 NE8       30.20R
KIRKSVILLE     CLOUDY    40  33  76 NE8       30.18R

$$
MOZ066>068-077>081-088>096-101>105-251800-
...SOUTHWEST MISSOURI...

CITY           SKY/WX    TMP DP  RH WIND       PRES   REMARKS
SPRINGFIELD    CLOUDY    46  40  79 NE5       30.09F
JOPLIN         CLOUDY    47  40  76 N6        30.13R
BRANSON        CLOUDY    46  41  81 E6        30.09S

$$
MOZ032>034-039>042-045>050-055>058-069>072-251800-
...CENTRAL MISSOURI...

CITY           SKY/WX    TMP DP  RH WIND       PRES   REMARKS
COLUMBIA       CLOUDY    44  36  73 N7        30.14R
JEFFERSON CITY CLOUDY    47  36  65 NE5       30.14S
ROLLA          CLOUDY    45  39  79 N5        30.11R
SEDALIA        CLOUDY    42  36  79 N6        30.15S
WHITEMAN AFB   CLOUDY    41  37  86 NE9       30.10F
WARRENSBURG    CLOUDY    39  34  81 N6        30.16F
OSAGE BEACH      N/A     45  39  79 NE3       30.13F

$$
MOZ051-052-059>065-251800-
...EAST CENTRAL MISSOURI...

CITY           SKY/WX    TMP DP  RH WIND       PRES   REMARKS
ST LOUIS INTL  CLOUDY    49  38  65 CALM      30.11R
SPIRIT OF STL  CLOUDY    49  38  65 N5        30.10R
ST CHARLES     CLOUDY    50  38  63 NE9       30.10S

$$
MOZ072>076-082>087-097>100-106>115-251800-
...SOUTH CENTRAL AND SOUTHEAST MISSOURI...

CITY           SKY/WX    TMP DP  RH WIND       PRES   REMARKS
CAPE GIRARDEAU CLOUDY    54  44  69 NE6       30.05F
FARMINGTON     CLOUDY    50  40  68 CALM      30.08R
POPLAR BLUFF   CLOUDY    52  41  66 VRB3      30.06S
WEST PLAINS    CLOUDY    47  43  86 NW3       30.08S FOG

$$



USA.gov is the U.S. government's official web portal to all federal, state and local government web resources and services.